| time (UTC) | temp F | wind direction | speed MPH | gust MPH | rain 1hr in | rain 24hr in | rain mn in | humidity % | barometer mb |
| 20260509103100 | 75 | 0.0 | 1.0 | 0.00 | 0.01 | 0.00 | 95 | 1010.1 | |
| 20260509102051 | 75 | 202 | 0.0 | 1.0 | 0.00 | 0.01 | 0.00 | 95 | 1010.2 |
| 20260509101020 | 75 | 0.0 | 0.0 | 0.00 | 0.01 | 0.00 | 95 | 1010.1 | |
| 20260509100111 | 75 | 0.0 | 0.0 | 0.00 | 0.01 | 0.00 | 95 | 1009.9 | |
| 20260509095121 | 75 | 0.0 | 0.0 | 0.00 | 0.01 | 0.00 | 95 | 1009.7 | |
| 20260509094051 | 75 | 0.0 | 0.0 | 0.00 | 0.01 | 0.00 | 95 | 1009.7 | |
| 20260509093041 | 75 | 0.0 | 0.0 | 0.00 | 0.01 | 0.00 | 95 | 1009.7 | |
| 20260509092031 | 75 | 0.0 | 0.0 | 0.00 | 0.01 | 0.00 | 95 | 1009.8 | |
| 20260509091021 | 75 | 0.0 | 0.0 | 0.00 | 0.01 | 0.00 | 95 | 1010.1 | |
| 20260509090112 | 75 | 0.0 | 0.0 | 0.00 | 0.01 | 0.00 | 95 | 1010.1 | |
| 20260509085102 | 75 | 0.0 | 0.0 | 0.00 | 0.01 | 0.00 | 95 | 1010.2 | |
| 20260509084052 | 75 | 0.0 | 0.0 | 0.00 | 0.01 | 0.00 | 95 | 1010.3 | |
| 20260509083042 | 75 | 0.0 | 0.0 | 0.00 | 0.01 | 0.00 | 95 | 1010.2 | |
| 20260509082052 | 75 | 0.0 | 0.0 | 0.00 | 0.01 | 0.00 | 95 | 1010.2 | |
| 20260509081022 | 75 | 155 | 0.0 | 2.0 | 0.00 | 0.01 | 0.00 | 95 | 1010.1 |
| 20260509080113 | 75 | 0.0 | 1.0 | 0.00 | 0.01 | 0.00 | 95 | 1010.0 | |
| 20260509075103 | 75 | 0.0 | 1.0 | 0.00 | 0.01 | 0.00 | 95 | 1010.0 | |
| 20260509074053 | 75 | 57 | 0.0 | 2.0 | 0.00 | 0.01 | 0.00 | 95 | 1010.1 |
| 20260509073043 | 75 | 236 | 1.0 | 4.0 | 0.00 | 0.01 | 0.00 | 95 | 1009.8 |
| 20260509072033 | 75 | 193 | 1.0 | 2.0 | 0.00 | 0.01 | 0.00 | 95 | 1009.8 |
| 20260509071022 | 75 | 222 | 1.0 | 2.0 | 0.00 | 0.01 | 0.00 | 95 | 1010.0 |
| 20260509070114 | 74 | 102 | 1.0 | 3.0 | 0.00 | 0.01 | 0.00 | 95 | 1010.2 |
| 20260509065104 | 74 | 142 | 0.0 | 1.0 | 0.00 | 0.01 | 0.00 | 94 | 1010.2 |
| 20260509064053 | 75 | 0.0 | 1.0 | 0.00 | 0.01 | 0.00 | 94 | 1010.4 | |
| 20260509063043 | 75 | 0.0 | 0.0 | 0.00 | 0.01 | 0.00 | 94 | 1010.5 | |
| 20260509062034 | 75 | 0.0 | 0.0 | 0.00 | 0.01 | 0.00 | 94 | 1010.5 | |
| 20260509061023 | 75 | 28 | 0.0 | 2.0 | 0.00 | 0.01 | 0.00 | 94 | 1010.7 |
| 20260509060114 | 75 | 180 | 0.0 | 3.0 | 0.00 | 0.01 | 0.00 | 93 | 1010.5 |
| 20260509055124 | 75 | 0.0 | 1.0 | 0.00 | 0.01 | 0.00 | 93 | 1010.7 | |
| 20260509054054 | 75 | 191 | 0.0 | 2.0 | 0.00 | 0.01 | 0.00 | 93 | 1010.6 |
| 20260509053044 | 75 | 0.0 | 1.0 | 0.00 | 0.01 | 0.00 | 93 | 1010.6 | |
| 20260509052035 | 74 | 276 | 0.0 | 2.0 | 0.00 | 0.01 | 0.00 | 93 | 1010.7 |
| 20260509051024 | 74 | 210 | 1.0 | 2.0 | 0.00 | 0.01 | 0.00 | 93 | 1010.7 |
| 20260509050115 | 74 | 235 | 0.0 | 2.0 | 0.00 | 0.01 | 0.00 | 93 | 1010.6 |
| 20260509045125 | 74 | 354 | 1.0 | 2.0 | 0.00 | 0.01 | 0.01 | 93 | 1010.6 |
| 20260509044055 | 74 | 76 | 0.0 | 2.0 | 0.00 | 0.01 | 0.01 | 92 | 1010.7 |
| 20260509043045 | 74 | 248 | 0.0 | 1.0 | 0.00 | 0.01 | 0.01 | 92 | 1010.7 |
| 20260509042035 | 74 | 243 | 0.0 | 1.0 | 0.00 | 0.01 | 0.01 | 92 | 1010.7 |
| 20260509041025 | 74 | 48 | 0.0 | 2.0 | 0.00 | 0.01 | 0.01 | 92 | 1010.6 |
| 20260509040116 | 74 | 131 | 0.0 | 2.0 | 0.00 | 0.01 | 0.01 | 91 | 1010.6 |
| 20260509035106 | 74 | 194 | 0.0 | 2.0 | 0.00 | 0.01 | 0.01 | 91 | 1010.4 |
| 20260509034056 | 74 | 217 | 0.0 | 1.0 | 0.00 | 0.01 | 0.01 | 91 | 1010.4 |
| 20260509033046 | 74 | 281 | 1.0 | 3.0 | 0.00 | 0.01 | 0.01 | 90 | 1010.3 |
| 20260509032036 | 74 | 300 | 0.0 | 3.0 | 0.00 | 0.01 | 0.01 | 90 | 1010.0 |
| 20260509031025 | 74 | 308 | 1.0 | 2.0 | 0.00 | 0.01 | 0.01 | 90 | 1010.2 |
| 20260509030117 | 74 | 244 | 2.0 | 4.0 | 0.00 | 0.01 | 0.01 | 90 | 1010.1 |
| 20260509025107 | 74 | 267 | 1.0 | 2.0 | 0.00 | 0.01 | 0.01 | 90 | 1010.0 |
| 20260509024117 | 74 | 84 | 1.0 | 4.0 | 0.00 | 0.01 | 0.01 | 90 | 1010.1 |
| 20260509023047 | 74 | 347 | 1.0 | 2.0 | 0.00 | 0.01 | 0.01 | 90 | 1009.8 |
| 20260509022037 | 74 | 262 | 0.0 | 2.0 | 0.00 | 0.01 | 0.01 | 90 | 1009.9 |
| 20260509021026 | 74 | 360 | 0.0 | 2.0 | 0.00 | 0.01 | 0.01 | 90 | 1009.7 |
| 20260509020016 | 74 | 33 | 0.0 | 2.0 | 0.00 | 0.01 | 0.01 | 90 | 1009.5 |
| 20260509015107 | 74 | 80 | 0.0 | 2.0 | 0.00 | 0.01 | 0.01 | 90 | 1009.5 |
| 20260509014057 | 74 | 77 | 0.0 | 2.0 | 0.00 | 0.01 | 0.01 | 90 | 1009.5 |
| 20260509013047 | 74 | 3 | 0.0 | 2.0 | 0.00 | 0.01 | 0.01 | 90 | 1009.6 |
| 20260509012037 | 74 | 80 | 0.0 | 3.0 | 0.00 | 0.01 | 0.01 | 90 | 1009.4 |
| 20260509011027 | 74 | 0.0 | 0.0 | 0.00 | 0.01 | 0.01 | 90 | 1009.4 | |
| 20260509010017 | 74 | 65 | 0.0 | 2.0 | 0.00 | 0.01 | 0.01 | 89 | 1009.3 |
| 20260509005108 | 74 | 69 | 0.0 | 2.0 | 0.00 | 0.01 | 0.01 | 89 | 1009.2 |
| 20260509004058 | 74 | 25 | 1.0 | 2.0 | 0.00 | 0.01 | 0.01 | 89 | 1009.1 |
| 20260509003048 | 74 | 347 | 0.0 | 2.0 | 0.00 | 0.01 | 0.01 | 89 | 1009.3 |
| 20260509002038 | 74 | 267 | 0.0 | 2.0 | 0.00 | 0.01 | 0.01 | 89 | 1009.2 |
| 20260509001028 | 74 | 13 | 0.0 | 1.0 | 0.00 | 0.01 | 0.01 | 89 | 1009.4 |
| 20260509000018 | 74 | 22 | 1.0 | 3.0 | 0.00 | 0.01 | 0.01 | 89 | 1009.5 |
| 20260508235109 | 74 | 47 | 0.0 | 2.0 | 0.00 | 0.01 | 0.01 | 89 | 1009.4 |
| 20260508234119 | 74 | 44 | 1.0 | 2.0 | 0.00 | 0.01 | 0.01 | 89 | 1009.4 |
| 20260508233049 | 74 | 240 | 1.0 | 2.0 | 0.00 | 0.01 | 0.01 | 89 | 1009.4 |
| 20260508232059 | 75 | 89 | 1.0 | 2.0 | 0.00 | 0.01 | 0.01 | 88 | 1009.5 |
| 20260508231029 | 75 | 326 | 0.0 | 2.0 | 0.00 | 0.01 | 0.01 | 87 | 1009.6 |
| 20260508230018 | 75 | 237 | 1.0 | 2.0 | 0.00 | 0.01 | 0.01 | 86 | 1009.7 |
| 20260508225109 | 75 | 264 | 0.0 | 2.0 | 0.00 | 0.01 | 0.01 | 86 | 1009.5 |
| 20260508224100 | 75 | 282 | 0.0 | 6.0 | 0.00 | 0.01 | 0.01 | 87 | 1009.4 |
| 20260508223049 | 75 | 349 | 1.0 | 6.0 | 0.00 | 0.01 | 0.01 | 86 | 1009.4 |
| 20260508222040 | 76 | 16 | 1.0 | 3.0 | 0.00 | 0.01 | 0.01 | 86 | 1009.6 |
| 20260508221050 | 76 | 336 | 1.0 | 6.0 | 0.00 | 0.01 | 0.01 | 86 | 1009.5 |
| 20260508220039 | 76 | 181 | 1.0 | 4.0 | 0.00 | 0.01 | 0.01 | 86 | 1009.7 |
| 20260508215110 | 76 | 36 | 0.0 | 2.0 | 0.00 | 0.01 | 0.01 | 85 | 1009.7 |
| 20260508214100 | 76 | 67 | 1.0 | 6.0 | 0.00 | 0.01 | 0.01 | 85 | 1009.6 |
| 20260508213050 | 76 | 68 | 1.0 | 4.0 | 0.00 | 0.01 | 0.01 | 85 | 1009.7 |
| 20260508212040 | 76 | 251 | 0.0 | 4.0 | 0.00 | 0.01 | 0.01 | 86 | 1010.0 |
| 20260508211030 | 76 | 245 | 1.0 | 2.0 | 0.00 | 0.01 | 0.01 | 85 | 1010.3 |
| 20260508210040 | 76 | 8 | 0.0 | 2.0 | 0.00 | 0.01 | 0.01 | 86 | 1010.2 |
| 20260508205111 | 76 | 241 | 1.0 | 3.0 | 0.00 | 0.01 | 0.01 | 85 | 1010.4 |
| 20260508204101 | 76 | 143 | 1.0 | 2.0 | 0.00 | 0.01 | 0.01 | 84 | 1010.4 |
| 20260508203051 | 76 | 175 | 1.0 | 4.0 | 0.00 | 0.01 | 0.01 | 84 | 1010.3 |
| 20260508202041 | 76 | 289 | 1.0 | 6.0 | 0.00 | 0.01 | 0.01 | 84 | 1010.6 |
| 20260508201031 | 76 | 248 | 1.0 | 3.0 | 0.00 | 0.01 | 0.01 | 85 | 1010.5 |
| 20260508200041 | 75 | 78 | 1.0 | 4.0 | 0.00 | 0.01 | 0.01 | 87 | 1010.6 |
| 20260508195152 | 74 | 195 | 0.0 | 1.0 | 0.01 | 0.01 | 0.01 | 88 | 1011.0 |
| 20260508194122 | 74 | 331 | 1.0 | 4.0 | 0.01 | 0.01 | 0.01 | 88 | 1010.9 |
| 20260508193052 | 73 | 253 | 0.0 | 3.0 | 0.01 | 0.01 | 0.01 | 89 | 1010.9 |
| 20260508192042 | 73 | 33 | 0.0 | 2.0 | 0.01 | 0.01 | 0.01 | 89 | 1011.5 |
| 20260508191032 | 72 | 52 | 0.0 | 2.0 | 0.01 | 0.01 | 0.01 | 89 | 1011.7 |
| 20260508190022 | 72 | 52 | 0.0 | 1.0 | 0.01 | 0.01 | 0.01 | 88 | 1011.9 |
| 20260508185113 | 73 | 169 | 0.0 | 1.0 | 0.00 | 0.00 | 0.00 | 87 | 1011.7 |
| 20260508184103 | 73 | 190 | 0.0 | 2.0 | 0.00 | 0.00 | 0.00 | 85 | 1011.6 |
| 20260508183052 | 74 | 98 | 1.0 | 3.0 | 0.00 | 0.00 | 0.00 | 86 | 1011.4 |
| 20260508182103 | 73 | 21 | 1.0 | 3.0 | 0.00 | 0.00 | 0.00 | 88 | 1011.5 |
| 20260508181033 | 72 | 175 | 1.0 | 6.0 | 0.00 | 0.00 | 0.00 | 88 | 1011.5 |
| 20260508180042 | 72 | 318 | 0.0 | 3.0 | 0.00 | 0.00 | 0.00 | 88 | 1011.8 |
| 20260508175113 | 72 | 0.0 | 1.0 | 0.00 | 0.00 | 0.00 | 87 | 1012.1 | |
| 20260508174104 | 72 | 349 | 1.0 | 2.0 | 0.00 | 0.00 | 0.00 | 85 | 1012.4 |
| 20260508173053 | 72 | 349 | 0.0 | 3.0 | 0.00 | 0.00 | 0.00 | 83 | 1012.3 |
| 20260508172043 | 71 | 301 | 0.0 | 1.0 | 0.00 | 0.00 | 0.00 | 84 | 1012.6 |
| 20260508171033 | 71 | 225 | 1.0 | 3.0 | 0.00 | 0.00 | 0.00 | 83 | 1012.5 |
| 20260508170023 | 72 | 48 | 1.0 | 3.0 | 0.00 | 0.00 | 0.00 | 82 | 1012.6 |
| 20260508165114 | 72 | 247 | 1.0 | 4.0 | 0.00 | 0.00 | 0.00 | 82 | 1012.7 |
| 20260508164144 | 71 | 274 | 1.0 | 4.0 | 0.00 | 0.00 | 0.00 | 83 | 1012.9 |
| 20260508163054 | 71 | 263 | 1.0 | 4.0 | 0.00 | 0.00 | 0.00 | 82 | 1012.9 |
| 20260508162044 | 72 | 14 | 1.0 | 4.0 | 0.00 | 0.00 | 0.00 | 82 | 1012.8 |
| 20260508161034 | 71 | 72 | 1.0 | 4.0 | 0.00 | 0.00 | 0.00 | 82 | 1012.7 |
| 20260508160044 | 70 | 114 | 2.0 | 7.0 | 0.00 | 0.00 | 0.00 | 84 | 1012.9 |
| 20260508155115 | 69 | 138 | 1.0 | 4.0 | 0.00 | 0.00 | 0.00 | 84 | 1013.3 |
| 20260508154125 | 69 | 89 | 2.0 | 7.0 | 0.00 | 0.00 | 0.00 | 84 | 1013.4 |
| 20260508153055 | 69 | 190 | 0.0 | 3.0 | 0.00 | 0.00 | 0.00 | 84 | 1013.5 |
| 20260508152045 | 69 | 53 | 1.0 | 6.0 | 0.00 | 0.00 | 0.00 | 84 | 1013.5 |
| 20260508151035 | 69 | 149 | 1.0 | 2.0 | 0.00 | 0.00 | 0.00 | 84 | 1013.3 |
| 20260508150025 | 69 | 245 | 1.0 | 4.0 | 0.00 | 0.00 | 0.00 | 85 | 1013.4 |
| 20260508145116 | 69 | 131 | 1.0 | 3.0 | 0.00 | 0.00 | 0.00 | 86 | 1013.4 |
| 20260508144126 | 69 | 355 | 0.0 | 2.0 | 0.00 | 0.00 | 0.00 | 87 | 1013.4 |
| 20260508143056 | 69 | 354 | 1.0 | 3.0 | 0.00 | 0.00 | 0.00 | 88 | 1013.2 |
| 20260508142046 | 69 | 71 | 1.0 | 3.0 | 0.00 | 0.00 | 0.00 | 88 | 1013.3 |
| 20260508141035 | 69 | 123 | 0.0 | 3.0 | 0.00 | 0.00 | 0.00 | 88 | 1013.4 |
| 20260508140026 | 69 | 28 | 0.0 | 2.0 | 0.00 | 0.00 | 0.00 | 88 | 1013.4 |
| 20260508135136 | 69 | 342 | 0.0 | 1.0 | 0.00 | 0.00 | 0.00 | 88 | 1013.4 |
| 20260508134226 | 69 | 22 | 0.0 | 2.0 | 0.00 | 0.00 | 0.00 | 87 | 1013.3 |
| 20260508133056 | 69 | 338 | 0.0 | 1.0 | 0.00 | 0.00 | 0.00 | 88 | 1013.1 |
| 20260508132046 | 69 | 276 | 0.0 | 1.0 | 0.00 | 0.00 | 0.00 | 88 | 1013.1 |
| 20260508131036 | 69 | 307 | 0.0 | 2.0 | 0.00 | 0.00 | 0.00 | 86 | 1013.4 |
| 20260508130026 | 69 | 194 | 0.0 | 2.0 | 0.00 | 0.00 | 0.00 | 84 | 1013.4 |
| 20260508125036 | 69 | 38 | 0.0 | 2.0 | 0.00 | 0.00 | 0.00 | 84 | 1013.3 |
| 20260508124107 | 69 | 330 | 1.0 | 3.0 | 0.00 | 0.00 | 0.00 | 84 | 1013.3 |
| 20260508123057 | 69 | 174 | 0.0 | 2.0 | 0.00 | 0.00 | 0.00 | 84 | 1013.3 |
| 20260508122047 | 69 | 149 | 1.0 | 3.0 | 0.00 | 0.00 | 0.00 | 84 | 1013.2 |
| 20260508121037 | 69 | 74 | 1.0 | 3.0 | 0.00 | 0.00 | 0.00 | 84 | 1013.2 |
| 20260508120027 | 69 | 315 | 0.0 | 1.0 | 0.00 | 0.00 | 0.00 | 84 | 1013.6 |
| 20260508115037 | 69 | 14 | 0.0 | 1.0 | 0.00 | 0.00 | 0.00 | 84 | 1014.0 |
| 20260508114108 | 69 | 303 | 0.0 | 2.0 | 0.00 | 0.00 | 0.00 | 84 | 1014.1 |
| 20260508113058 | 69 | 298 | 0.0 | 3.0 | 0.00 | 0.00 | 0.00 | 84 | 1013.8 |
| 20260508112048 | 69 | 62 | 0.0 | 1.0 | 0.00 | 0.00 | 0.00 | 83 | 1013.4 |
| 20260508111038 | 68 | 352 | 0.0 | 2.0 | 0.00 | 0.00 | 0.00 | 83 | 1013.1 |
| 20260508110028 | 68 | 191 | 0.0 | 2.0 | 0.00 | 0.00 | 0.00 | 83 | 1012.9 |
| 20260508105018 | 68 | 69 | 1.0 | 3.0 | 0.00 | 0.00 | 0.00 | 82 | 1013.1 |
| 20260508104108 | 68 | 59 | 1.0 | 4.0 | 0.00 | 0.00 | 0.00 | 82 | 1012.9 |